User: anonymous   Login
Location: Minneapolis
(45.0000°N, 93.0000°W)
Time: 15:38:13
(UTC-05:00)
Language:

Envisat - Orbit

View from above orbital plane
View from above orbital plane
View from above satellite
View from above satellite

Ground track
Ground track

The orbit data is extracted from the following two-line orbital elements,

1 27386U 02009A   18175.56077272 -.00000009  00000-0  10469-4 0  9999
2 27386  98.1835 209.2743 0001261  94.8439  59.0574 14.37924457854582
Epoch (UTC): 24 June 2018 13:27:30
Eccentricity: 0.0001261
inclination: 98.1835°
perigee height: 764 km
apogee height: 766 km
right ascension of ascending node: 209.2743°
argument of perigee: 94.8439°
revolutions per day: 14.37924457
mean anomaly at epoch: 59.0574°
orbit number at epoch: 85458

The dashed part of the orbit path shows where the satellite is in the earth's shadow,  

DLR